Yakima, WA

1:43 AM PDT on June 20, 2018 (GMT -0700)
Yakima Air Term-McAllister

Weather History for KYKM - November, 2017

Change the Weather History Date:

Friday, November 3, 2017

  Actual Average Record
Temperature  
Mean Temperature 42 °F 42 °F  
Max Temperature 51 °F 55 °F 72 °F (1975)
Min Temperature 32 °F 30 °F 7 °F (2002)
Degree Days  
Heating Degree Days 23 23  
Month to date heating degree days 64 68  
Since 1 July heating degree days 625 772  
Cooling Degree Days 0 0  
Month to date cooling degree days 0 0  
Year to date cooling degree days 1054 472  
Moisture  
Dew Point 31 °F    
Average Humidity 70    
Maximum Humidity 89    
Minimum Humidity 50    
Precipitation  
Precipitation 0.01 in 0.03 in 0.57 in (1958)
Month to date precipitation 0.01 0.08  
Year to date precipitation 8.75 5.75  
Snow  
Snow 0.00 in 0.00 in 2.50 in (1973)
Month to date snowfall 0.0 0.0  
Year to date snowfall 29.1 8.7  
Since 1 July snowfall 0.0 0.1  
Snow Depth 0.00 in    
Sea Level Pressure  
Sea Level Pressure 29.91 in    
Wind  
Wind Speed 4 mph (WNW)    
Max Wind Speed 12 mph    
Max Gust Speed 14 mph    
Visibility 10 miles    
Events Rain , Snow    
T = Trace of Precipitation, MM = Missing Value Source: NWS Daily Summary

Daily Weather History Graph

Daily Weather History Graph

Search for Another Location

Airport or City:

Astronomy

Nov. 03, 2017 Rise Set
Actual Time 7:47 AM PDT 5:43 PM PDT
Civil Twilight 7:15 AM PDT 6:15 PM PDT
Nautical Twilight 6:39 AM PDT 6:50 PM PDT
Astronomical Twilight 6:04 AM PDT 7:26 PM PDT
Moon 6:00 PM PDT (11/3) 6:50 AM PDT (11/3)
Length of Visible Light 10h 59m
Length of Day
9h 56m
Full, 100% of the Moon is Illuminated
Nov 3
Full
Nov 3
Full
Nov 10
Last Quarter
Nov 18
New
Nov 26
First Quarter

Hourly Weather History & Observations

Time (PDT) Temp. Windchill Dew Point Humidity Pressure Visibility Wind Dir Wind Speed Gust Speed Precip Events Conditions
12:53 AM 37.9 °F 34.4 °F 30.0 °F 73% 29.76 in 10.0 mi SSW 4.6 mph - N/A   Clear
1:53 AM 37.0 °F 34.5 °F 30.0 °F 76% 29.76 in 10.0 mi North 3.5 mph - N/A   Clear
2:53 AM 32.0 °F 24.8 °F 28.0 °F 85% 29.80 in 10.0 mi WNW 8.1 mph - N/A   Partly Cloudy
3:53 AM 33.1 °F 27.7 °F 28.0 °F 82% 29.80 in 9.0 mi West 5.8 mph - 0.00 in Snow Light Snow
4:53 AM 34.0 °F 28.0 °F 28.9 °F 82% 29.81 in 9.0 mi West 6.9 mph - 0.00 in Snow Light Snow
5:53 AM 35.1 °F 29.3 °F 28.9 °F 78% 29.83 in 10.0 mi West 6.9 mph - 0.00 in   Mostly Cloudy
6:53 AM 36.0 °F 32.1 °F 30.0 °F 79% 29.83 in 10.0 mi WNW 4.6 mph - N/A   Mostly Cloudy
7:53 AM 35.1 °F - 28.9 °F 78% 29.85 in 10.0 mi Calm Calm - 0.00 in   Mostly Cloudy
8:53 AM 33.1 °F - 28.9 °F 85% 29.88 in 10.0 mi Calm Calm - N/A   Clear
9:53 AM 41.0 °F - 32.0 °F 70% 29.89 in 10.0 mi Calm Calm - N/A   Partly Cloudy
10:53 AM 45.0 °F - 32.0 °F 60% 29.90 in 10.0 mi Calm Calm - N/A   Partly Cloudy
11:53 AM 48.0 °F - 30.9 °F 52% 29.90 in 10.0 mi Calm Calm - N/A   Clear
12:53 PM 48.9 °F - 30.9 °F 50% 29.90 in 10.0 mi Calm Calm - N/A   Partly Cloudy
1:53 PM 48.9 °F - 32.0 °F 52% 29.90 in 10.0 mi Variable 3.5 mph - 0.00 in   Scattered Clouds
2:53 PM 48.9 °F - 30.0 °F 48% 29.90 in 10.0 mi Calm Calm - N/A   Overcast
3:53 PM 48.0 °F - 30.9 °F 52% 29.92 in 10.0 mi North 6.9 mph - 0.00 in   Overcast
4:53 PM 46.0 °F 42.5 °F 32.0 °F 58% 29.94 in 10.0 mi North 6.9 mph - N/A   Mostly Cloudy
5:53 PM 43.0 °F 37.7 °F 33.1 °F 68% 29.97 in 8.0 mi NNW 9.2 mph - 0.00 in Rain Light Rain
6:26 PM 42.1 °F 40.2 °F 34.0 °F 73% 29.94 in 10.0 mi NE 3.5 mph - 0.01 in   Scattered Clouds
6:53 PM 39.0 °F 34.8 °F 33.1 °F 79% 29.98 in 10.0 mi South 5.8 mph - 0.01 in   Clear
7:53 PM 37.9 °F 32.1 °F 33.1 °F 83% 30.00 in 10.0 mi WSW 8.1 mph - N/A   Mostly Cloudy
8:53 PM 39.0 °F 34.8 °F 34.0 °F 82% 30.01 in 10.0 mi WSW 5.8 mph - N/A   Overcast
9:53 PM 37.9 °F 33.5 °F 33.1 °F 83% 30.02 in 10.0 mi WNW 5.8 mph - N/A   Overcast
10:53 PM 33.1 °F 28.7 °F 30.0 °F 89% 30.01 in 10.0 mi West 4.6 mph - N/A   Partly Cloudy
11:50 PM 33.8 °F 29.6 °F 30.2 °F 87% 30.00 in 10.0 mi West 4.6 mph - 0.00 in   Mostly Cloudy
11:53 PM 33.1 °F 30.0 °F 30.0 °F 89% 30.03 in 10.0 mi West 3.5 mph - 0.00 in   Mostly Cloudy